Time,TemperatureF,DewpointF,PressureIn,WindDirection,WindDirectionDegrees,WindSpeedMPH,WindSpeedGustMPH,Humidity,HourlyPrecipIn,Conditions,Clouds,dailyrainin,SoftwareType,DateUTC
2013-04-28 00:03:00,67.1,20.8,29.85,ESE,112,1.3,1.3,17,0.00,,,0.00,meteobridge,2013-04-27 21:03:00,
2013-04-28 00:08:00,67.1,20.8,29.85,East,90,0.0,1.6,17,0.00,,,0.00,meteobridge,2013-04-27 21:08:00,
2013-04-28 00:13:00,66.9,20.8,29.85,NE,45,0.0,0.0,17,0.00,,,0.00,meteobridge,2013-04-27 21:13:00,
2013-04-28 00:18:00,66.9,20.8,29.85,NE,45,0.0,0.0,17,0.00,,,0.00,meteobridge,2013-04-27 21:18:00,
2013-04-28 00:23:00,66.7,20.7,29.85,NE,45,0.0,0.0,17,0.00,,,0.00,meteobridge,2013-04-27 21:23:00,
2013-04-28 00:28:00,66.6,20.5,29.85,NE,45,0.0,0.0,17,0.00,,,0.00,meteobridge,2013-04-27 21:28:00,
2013-04-28 00:33:00,66.4,20.3,29.85,NNE,22,0.0,0.0,17,0.00,,,0.00,meteobridge,2013-04-27 21:33:00,
2013-04-28 00:38:00,66.2,20.1,29.85,NNE,22,1.1,1.1,17,0.00,,,0.00,meteobridge,2013-04-27 21:38:00,
2013-04-28 00:43:00,66.2,20.1,29.85,NE,45,0.0,0.0,17,0.00,,,0.00,meteobridge,2013-04-27 21:43:00,
2013-04-28 00:48:00,66.0,21.4,29.85,NNE,22,0.0,0.0,18,0.00,,,0.00,meteobridge,2013-04-27 21:48:00,
2013-04-28 00:54:00,65.8,21.2,29.85,East,90,0.0,0.0,18,0.00,,,0.00,meteobridge,2013-04-27 21:54:00,
2013-04-28 00:59:00,65.8,21.2,29.85,East,90,0.0,0.0,18,0.00,,,0.00,meteobridge,2013-04-27 21:59:00,
2013-04-28 01:04:00,65.7,21.0,29.85,East,90,0.0,0.0,18,0.00,,,0.00,meteobridge,2013-04-27 22:04:00,
2013-04-28 01:09:00,65.5,20.8,29.83,East,90,0.0,1.1,18,0.00,,,0.00,meteobridge,2013-04-27 22:09:00,
2013-04-28 01:14:00,65.5,20.8,29.83,NNE,22,1.3,1.3,18,0.00,,,0.00,meteobridge,2013-04-27 22:14:00,
2013-04-28 01:19:00,65.7,21.0,29.83,NNE,22,0.0,1.3,18,0.00,,,0.00,meteobridge,2013-04-27 22:19:00,
2013-04-28 01:24:00,65.5,20.8,29.85,NNE,22,0.0,0.0,18,0.00,,,0.00,meteobridge,2013-04-27 22:24:00,
2013-04-28 01:29:00,65.5,20.8,29.85,NNE,22,0.0,0.0,18,0.00,,,0.00,meteobridge,2013-04-27 22:29:00,
2013-04-28 01:34:00,65.1,20.7,29.85,NNE,22,0.0,0.0,18,0.00,,,0.00,meteobridge,2013-04-27 22:34:00,
2013-04-28 01:39:00,64.9,20.5,29.83,NNE,22,0.0,0.0,18,0.00,,,0.00,meteobridge,2013-04-27 22:39:00,
2013-04-28 01:44:00,64.8,20.3,29.83,NNE,22,0.0,0.0,18,0.00,,,0.00,meteobridge,2013-04-27 22:44:00,
2013-04-28 01:49:00,64.6,20.1,29.83,NNE,22,0.0,0.0,18,0.00,,,0.00,meteobridge,2013-04-27 22:49:00,
2013-04-28 01:54:00,64.4,20.1,29.83,NNE,22,1.6,1.6,18,0.00,,,0.00,meteobridge,2013-04-27 22:54:00,
2013-04-28 01:59:00,64.2,19.9,29.83,NNE,22,1.1,1.1,18,0.00,,,0.00,meteobridge,2013-04-27 22:59:00,
2013-04-28 02:04:00,64.2,19.9,29.83,NNE,22,0.0,1.1,18,0.00,,,0.00,meteobridge,2013-04-27 23:04:00,
2013-04-28 02:09:00,64.0,19.8,29.83,NNE,22,0.0,0.0,18,0.00,,,0.00,meteobridge,2013-04-27 23:09:00,
2013-04-28 02:15:00,64.0,19.8,29.83,NNE,22,0.0,-999.0,18,0.00,,,0.00,meteobridge,2013-04-27 23:15:00,
2013-04-28 02:20:00,63.9,19.6,29.83,NNE,22,0.0,0.0,18,0.00,,,0.00,meteobridge,2013-04-27 23:20:00,
2013-04-28 02:26:00,63.7,23.0,29.83,NNE,22,0.0,0.0,21,0.00,,,0.00,meteobridge,2013-04-27 23:26:00,
2013-04-28 02:31:00,63.7,23.0,29.83,NNE,22,0.0,0.0,21,0.00,,,0.00,meteobridge,2013-04-27 23:31:00,
2013-04-28 02:36:00,63.5,23.0,29.83,NNE,22,0.0,0.0,21,0.00,,,0.00,meteobridge,2013-04-27 23:36:00,
2013-04-28 02:41:00,63.5,23.0,29.83,NNE,22,0.0,0.0,21,0.00,,,0.00,meteobridge,2013-04-27 23:41:00,
2013-04-28 02:48:00,63.3,22.8,29.83,NNE,22,0.0,0.0,21,0.00,,,0.00,meteobridge,2013-04-27 23:48:00,
2013-04-28 02:53:00,63.1,22.6,29.83,NNE,22,0.0,0.0,21,0.00,,,0.00,meteobridge,2013-04-27 23:53:00,
2013-04-28 02:58:00,63.0,22.5,29.83,NNE,22,1.1,1.3,21,0.00,,,0.00,meteobridge,2013-04-27 23:58:00,
2013-04-28 03:03:00,63.0,22.5,29.83,NNE,22,0.9,1.3,21,0.00,,,0.00,meteobridge,2013-04-28 00:03:00,
2013-04-28 03:08:00,62.8,22.3,29.83,NNE,22,0.0,0.0,21,0.00,,,0.00,meteobridge,2013-04-28 00:08:00,
2013-04-28 03:13:00,62.8,22.3,29.83,NNE,22,0.0,0.0,21,0.00,,,0.00,meteobridge,2013-04-28 00:13:00,
2013-04-28 03:18:00,62.6,22.1,29.83,NNE,22,0.0,0.0,21,0.00,,,0.00,meteobridge,2013-04-28 00:18:00,
2013-04-28 03:23:00,62.6,22.1,29.83,NNE,22,0.0,0.0,21,0.00,,,0.00,meteobridge,2013-04-28 00:23:00,
2013-04-28 03:28:00,62.2,21.9,29.83,NNE,22,0.0,0.0,21,0.00,,,0.00,meteobridge,2013-04-28 00:28:00,
2013-04-28 03:33:00,62.2,21.9,29.83,NNE,22,0.0,0.0,21,0.00,,,0.00,meteobridge,2013-04-28 00:33:00,
2013-04-28 03:38:00,62.2,21.9,29.83,NNE,22,0.0,0.0,21,0.00,,,0.00,meteobridge,2013-04-28 00:38:00,
2013-04-28 03:43:00,62.2,25.0,29.83,NNE,22,0.0,0.0,24,0.00,,,0.00,meteobridge,2013-04-28 00:43:00,
2013-04-28 03:48:00,62.2,25.0,29.83,NNE,22,0.0,0.0,24,0.00,,,0.00,meteobridge,2013-04-28 00:48:00,
2013-04-28 03:53:00,62.1,25.0,29.83,NNE,22,0.0,0.0,24,0.00,,,0.00,meteobridge,2013-04-28 00:53:00,
2013-04-28 03:59:00,62.1,25.0,29.83,NNE,22,1.6,1.6,24,0.00,,,0.00,meteobridge,2013-04-28 00:59:00,
2013-04-28 04:04:00,62.1,25.0,29.83,NNE,22,0.0,0.0,24,0.00,,,0.00,meteobridge,2013-04-28 01:04:00,
2013-04-28 04:10:00,62.2,25.0,29.83,NNE,22,0.0,0.0,24,0.00,,,0.00,meteobridge,2013-04-28 01:10:00,
2013-04-28 04:15:00,62.1,25.0,29.83,NNE,22,0.0,0.0,24,0.00,,,0.00,meteobridge,2013-04-28 01:15:00,
2013-04-28 04:20:00,61.9,24.8,29.83,NNE,22,0.0,0.0,24,0.00,,,0.00,meteobridge,2013-04-28 01:20:00,
2013-04-28 04:25:00,61.7,24.6,29.80,NNE,22,0.0,0.0,24,0.00,,,0.00,meteobridge,2013-04-28 01:25:00,
2013-04-28 04:30:00,61.5,24.4,29.80,NNE,22,0.0,0.0,24,0.00,,,0.00,meteobridge,2013-04-28 01:30:00,
2013-04-28 04:35:00,61.3,24.3,29.80,NNE,22,0.0,0.0,24,0.00,,,0.00,meteobridge,2013-04-28 01:35:00,
2013-04-28 04:40:00,61.3,24.3,29.80,NNE,22,0.0,0.0,24,0.00,,,0.00,meteobridge,2013-04-28 01:40:00,
2013-04-28 04:45:00,61.3,24.3,29.80,NNE,22,0.0,0.0,24,0.00,,,0.00,meteobridge,2013-04-28 01:45:00,
2013-04-28 04:50:00,61.2,25.2,29.80,NNE,22,1.1,1.1,25,0.00,,,0.00,meteobridge,2013-04-28 01:50:00,
2013-04-28 04:55:00,61.2,25.2,29.83,NNE,22,1.3,1.3,25,0.00,,,0.00,meteobridge,2013-04-28 01:55:00,
2013-04-28 05:01:00,61.2,25.2,29.83,NNE,22,0.9,1.3,25,0.00,,,0.00,meteobridge,2013-04-28 02:01:00,
2013-04-28 05:06:00,61.2,25.2,29.83,NNE,22,0.0,0.0,25,0.00,,,0.00,meteobridge,2013-04-28 02:06:00,
2013-04-28 05:11:00,61.0,25.0,29.80,NNE,22,0.0,0.0,25,0.00,,,0.00,meteobridge,2013-04-28 02:11:00,
2013-04-28 05:17:00,60.8,25.7,29.80,NE,45,1.3,2.0,26,0.00,,,0.00,meteobridge,2013-04-28 02:17:00,
2013-04-28 05:22:00,60.8,25.7,29.80,NE,45,0.0,0.0,26,0.00,,,0.00,meteobridge,2013-04-28 02:22:00,
2013-04-28 05:27:00,60.8,25.7,29.83,NNE,22,1.1,1.1,26,0.00,,,0.00,meteobridge,2013-04-28 02:27:00,
2013-04-28 05:32:00,60.8,25.7,29.83,NNE,22,1.1,1.3,26,0.00,,,0.00,meteobridge,2013-04-28 02:32:00,
2013-04-28 05:38:00,61.0,26.8,29.83,NNE,22,0.0,1.6,27,0.00,,,0.00,meteobridge,2013-04-28 02:38:00,
2013-04-28 05:43:00,61.0,26.8,29.83,NNE,22,0.0,0.9,27,0.00,,,0.00,meteobridge,2013-04-28 02:43:00,
2013-04-28 05:48:00,60.8,26.6,29.83,NE,45,1.1,1.6,27,0.00,,,0.00,meteobridge,2013-04-28 02:48:00,
2013-04-28 05:53:00,61.0,28.6,29.83,ENE,68,2.2,2.2,29,0.00,,,0.00,meteobridge,2013-04-28 02:53:00,
2013-04-28 05:58:00,61.0,28.6,29.83,NNE,22,1.1,2.2,29,0.00,,,0.00,meteobridge,2013-04-28 02:58:00,
2013-04-28 06:03:00,61.0,28.6,29.83,North,0,1.6,2.0,29,0.00,,,0.00,meteobridge,2013-04-28 03:03:00,
2013-04-28 06:08:00,61.0,28.6,29.83,North,0,0.0,0.0,29,0.00,,,0.00,meteobridge,2013-04-28 03:08:00,
2013-04-28 06:13:00,60.8,28.4,29.83,North,0,0.0,0.0,29,0.00,,,0.00,meteobridge,2013-04-28 03:13:00,
2013-04-28 06:19:00,60.8,28.4,29.83,North,0,0.0,1.1,29,0.00,,,0.00,meteobridge,2013-04-28 03:19:00,
2013-04-28 06:24:00,61.0,28.6,29.80,North,0,1.1,1.1,29,0.00,,,0.00,meteobridge,2013-04-28 03:24:00,
2013-04-28 06:29:00,61.2,29.5,29.80,East,90,1.1,1.6,30,0.00,,,0.00,meteobridge,2013-04-28 03:29:00,
2013-04-28 06:34:00,61.3,29.7,29.80,ESE,112,0.0,1.1,30,0.00,,,0.00,meteobridge,2013-04-28 03:34:00,
2013-04-28 06:39:00,61.5,29.8,29.83,ESE,112,0.0,0.0,30,0.00,,,0.00,meteobridge,2013-04-28 03:39:00,
2013-04-28 06:44:00,61.7,30.0,29.83,ESE,112,0.0,0.0,30,0.00,,,0.00,meteobridge,2013-04-28 03:44:00,
2013-04-28 06:49:00,61.7,30.0,29.83,ESE,112,0.0,0.0,30,0.00,,,0.00,meteobridge,2013-04-28 03:49:00,
2013-04-28 06:54:00,61.9,30.2,29.83,ESE,112,0.0,0.0,30,0.00,,,0.00,meteobridge,2013-04-28 03:54:00,
2013-04-28 06:59:00,62.2,30.4,29.83,ESE,112,0.0,0.0,30,0.00,,,0.00,meteobridge,2013-04-28 03:59:00,
2013-04-28 07:01:00,62.2,30.4,29.83,ESE,112,0.0,0.0,30,0.00,,,0.00,meteobridge,2013-04-28 04:01:00,
2013-04-28 07:02:00,62.4,30.6,29.83,ESE,112,0.0,0.0,30,0.00,,,0.00,meteobridge,2013-04-28 04:02:00,
2013-04-28 07:07:00,63.5,31.6,29.83,ESE,112,0.0,0.0,30,0.00,,,0.00,meteobridge,2013-04-28 04:07:00,
2013-04-28 07:12:00,64.6,30.7,29.83,NNE,22,1.1,1.3,28,0.00,,,0.00,meteobridge,2013-04-28 04:12:00,
2013-04-28 07:17:00,65.8,31.8,29.83,NNE,22,0.0,0.0,28,0.00,,,0.00,meteobridge,2013-04-28 04:17:00,
2013-04-28 07:22:00,67.3,31.3,29.83,NNE,22,0.0,0.0,26,0.00,,,0.00,meteobridge,2013-04-28 04:22:00,
2013-04-28 07:27:00,67.8,31.8,29.83,North,0,0.0,0.0,26,0.00,,,0.00,meteobridge,2013-04-28 04:27:00,
2013-04-28 07:33:00,67.8,29.8,29.83,North,0,0.9,2.0,24,0.00,,,0.00,meteobridge,2013-04-28 04:33:00,
2013-04-28 07:38:00,67.3,29.3,29.83,North,0,0.0,0.0,24,0.00,,,0.00,meteobridge,2013-04-28 04:38:00,
2013-04-28 07:43:00,67.1,29.1,29.83,North,0,0.0,0.0,24,0.00,,,0.00,meteobridge,2013-04-28 04:43:00,
2013-04-28 07:48:00,67.1,29.1,29.83,North,0,0.0,0.0,24,0.00,,,0.00,meteobridge,2013-04-28 04:48:00,
2013-04-28 07:53:00,66.9,30.0,29.83,NNE,22,0.0,0.0,25,0.00,,,0.00,meteobridge,2013-04-28 04:53:00,
2013-04-28 07:58:00,67.3,30.4,29.83,NNE,22,0.0,0.0,25,0.00,,,0.00,meteobridge,2013-04-28 04:58:00,
2013-04-28 08:03:00,67.6,30.6,29.83,NNE,22,0.0,0.0,25,0.00,,,0.00,meteobridge,2013-04-28 05:03:00,
2013-04-28 08:08:00,68.2,31.1,29.85,NNE,22,0.0,0.0,25,0.00,,,0.00,meteobridge,2013-04-28 05:08:00,
2013-04-28 08:13:00,70.2,32.7,29.85,NNE,22,0.0,0.0,25,0.00,,,0.00,meteobridge,2013-04-28 05:13:00,
2013-04-28 08:18:00,70.9,32.4,29.85,NNE,22,1.3,1.6,24,0.00,,,0.00,meteobridge,2013-04-28 05:18:00,
2013-04-28 08:24:00,72.7,33.8,29.85,NNE,22,0.0,1.3,24,0.00,,,0.00,meteobridge,2013-04-28 05:24:00,
2013-04-28 08:29:00,72.9,32.9,29.85,NE,45,0.9,2.0,23,0.00,,,0.00,meteobridge,2013-04-28 05:29:00,
2013-04-28 08:34:00,73.6,33.6,29.85,NNE,22,1.3,2.7,23,0.00,,,0.00,meteobridge,2013-04-28 05:34:00,
2013-04-28 08:39:00,74.8,34.5,29.85,NNE,22,0.9,0.9,23,0.00,,,0.00,meteobridge,2013-04-28 05:39:00,
2013-04-28 08:44:00,76.6,35.1,29.85,East,90,0.0,1.6,22,0.00,,,0.00,meteobridge,2013-04-28 05:44:00,
2013-04-28 08:49:00,77.0,34.2,29.85,NNE,22,1.1,1.1,21,0.00,,,0.00,meteobridge,2013-04-28 05:49:00,
2013-04-28 08:54:00,76.5,33.6,29.85,WSW,248,1.3,2.5,21,0.00,,,0.00,meteobridge,2013-04-28 05:54:00,
2013-04-28 09:00:00,78.1,35.1,29.85,SE,135,1.3,1.3,21,0.00,,,0.00,meteobridge,2013-04-28 06:00:00,
2013-04-28 09:05:00,79.0,34.5,29.85,NE,45,1.6,1.6,20,0.00,,,0.00,meteobridge,2013-04-28 06:05:00,
2013-04-28 09:10:00,78.6,34.2,29.85,NNE,22,2.5,3.4,20,0.00,,,0.00,meteobridge,2013-04-28 06:10:00,
2013-04-28 09:15:00,78.4,34.2,29.85,SE,135,2.0,2.0,20,0.00,,,0.00,meteobridge,2013-04-28 06:15:00,
2013-04-28 09:21:00,79.5,35.1,29.85,South,180,2.9,2.9,20,0.00,,,0.00,meteobridge,2013-04-28 06:21:00,
2013-04-28 09:26:00,80.1,35.4,29.85,SE,135,1.1,2.5,20,0.00,,,0.00,meteobridge,2013-04-28 06:26:00,
2013-04-28 09:31:00,80.2,31.5,29.85,NNE,22,1.1,2.5,17,0.00,,,0.00,meteobridge,2013-04-28 06:31:00,
2013-04-28 09:36:00,80.2,31.5,29.85,ENE,68,1.1,2.0,17,0.00,,,0.00,meteobridge,2013-04-28 06:36:00,
2013-04-28 09:41:00,80.2,31.5,29.85,NW,315,1.6,2.7,17,0.00,,,0.00,meteobridge,2013-04-28 06:41:00,
2013-04-28 09:46:00,81.0,32.2,29.85,SW,225,0.9,2.0,17,0.00,,,0.00,meteobridge,2013-04-28 06:46:00,
2013-04-28 09:51:00,81.7,32.7,29.85,NE,45,2.2,2.7,17,0.00,,,0.00,meteobridge,2013-04-28 06:51:00,
2013-04-28 09:56:00,80.1,31.5,29.88,WNW,292,5.6,5.6,17,0.00,,,0.00,meteobridge,2013-04-28 06:56:00,
2013-04-28 10:02:00,80.2,31.5,29.88,NNE,22,1.1,2.0,17,0.00,,,0.00,meteobridge,2013-04-28 07:02:00,
2013-04-28 10:08:00,81.7,32.7,29.88,SSE,158,0.9,1.3,17,0.00,,,0.00,meteobridge,2013-04-28 07:08:00,
2013-04-28 10:13:00,82.2,33.1,29.88,SE,135,2.7,3.1,17,0.00,,,0.00,meteobridge,2013-04-28 07:13:00,
2013-04-28 10:18:00,82.8,32.0,29.88,North,0,1.1,2.0,16,0.00,,,0.00,meteobridge,2013-04-28 07:18:00,
2013-04-28 10:23:00,81.5,32.5,29.88,West,270,3.1,3.4,17,0.00,,,0.00,meteobridge,2013-04-28 07:23:00,
2013-04-28 10:28:00,82.6,31.8,29.88,SE,135,2.5,3.6,16,0.00,,,0.00,meteobridge,2013-04-28 07:28:00,
2013-04-28 10:33:00,83.3,32.5,29.88,West,270,2.9,2.9,16,0.00,,,0.00,meteobridge,2013-04-28 07:33:00,
2013-04-28 10:38:00,83.3,32.5,29.88,WSW,248,2.0,2.0,16,0.00,,,0.00,meteobridge,2013-04-28 07:38:00,
2013-04-28 10:44:00,83.3,32.5,29.88,West,270,3.4,5.8,16,0.00,,,0.00,meteobridge,2013-04-28 07:44:00,
2013-04-28 10:49:00,82.9,28.9,29.88,South,180,1.6,3.1,14,0.00,,,0.00,meteobridge,2013-04-28 07:49:00,
2013-04-28 10:54:00,84.2,28.0,29.88,NNW,338,2.0,4.0,13,0.00,,,0.00,meteobridge,2013-04-28 07:54:00,
2013-04-28 10:59:00,84.0,29.8,29.85,WNW,292,2.5,2.9,14,0.00,,,0.00,meteobridge,2013-04-28 07:59:00,
2013-04-28 11:10:00,83.5,29.3,29.88,NW,315,3.8,4.0,14,0.00,,,0.00,meteobridge,2013-04-28 08:10:00,
2013-04-28 11:15:00,84.2,28.0,29.88,SSE,158,1.1,2.7,13,0.00,,,0.00,meteobridge,2013-04-28 08:15:00,
2013-04-28 11:20:00,84.7,28.6,29.88,NNW,338,3.4,3.4,13,0.00,,,0.00,meteobridge,2013-04-28 08:20:00,
2013-04-28 11:25:00,84.4,28.2,29.85,NNW,338,3.4,3.4,13,0.00,,,0.00,meteobridge,2013-04-28 08:25:00,
2013-04-28 11:30:00,85.1,28.8,29.85,SSE,158,1.1,3.6,13,0.00,,,0.00,meteobridge,2013-04-28 08:30:00,
2013-04-28 11:36:00,85.6,29.3,29.85,ESE,112,2.9,2.9,13,0.00,,,0.00,meteobridge,2013-04-28 08:36:00,
2013-04-28 11:41:00,85.6,29.3,29.88,SSE,158,2.9,4.9,13,0.00,,,0.00,meteobridge,2013-04-28 08:41:00,
2013-04-28 11:46:00,85.8,29.3,29.88,East,90,2.2,2.9,13,0.00,,,0.00,meteobridge,2013-04-28 08:46:00,
2013-04-28 11:51:00,85.8,29.3,29.88,East,90,2.9,2.9,13,0.00,,,0.00,meteobridge,2013-04-28 08:51:00,
2013-04-28 11:56:00,85.5,29.1,29.88,SE,135,3.8,3.8,13,0.00,,,0.00,meteobridge,2013-04-28 08:56:00,
2013-04-28 12:01:00,86.0,29.5,29.88,ESE,112,2.5,3.6,13,0.00,,,0.00,meteobridge,2013-04-28 09:01:00,
2013-04-28 12:06:00,85.6,29.3,29.88,East,90,2.2,3.4,13,0.00,,,0.00,meteobridge,2013-04-28 09:06:00,
2013-04-28 12:12:00,86.0,29.5,29.88,East,90,1.3,2.7,13,0.00,,,0.00,meteobridge,2013-04-28 09:12:00,
2013-04-28 12:18:00,86.4,29.8,29.88,SSE,158,2.0,2.0,13,0.00,,,0.00,meteobridge,2013-04-28 09:18:00,
2013-04-28 12:23:00,86.5,29.8,29.88,SE,135,3.1,5.4,13,0.00,,,0.00,meteobridge,2013-04-28 09:23:00,
2013-04-28 12:28:00,86.7,30.0,29.88,SE,135,3.4,4.9,13,0.00,,,0.00,meteobridge,2013-04-28 09:28:00,
2013-04-28 12:33:00,86.7,30.0,29.88,West,270,4.0,4.0,13,0.00,,,0.00,meteobridge,2013-04-28 09:33:00,
2013-04-28 12:38:00,87.1,30.4,29.88,SE,135,3.4,3.4,13,0.00,,,0.00,meteobridge,2013-04-28 09:38:00,
2013-04-28 12:43:00,87.1,30.4,29.88,NNW,338,1.6,3.8,13,0.00,,,0.00,meteobridge,2013-04-28 09:43:00,
2013-04-28 12:48:00,86.9,30.2,29.88,East,90,2.7,2.7,13,0.00,,,0.00,meteobridge,2013-04-28 09:48:00,
2013-04-28 12:53:00,87.3,30.6,29.88,NNE,22,1.6,2.5,13,0.00,,,0.00,meteobridge,2013-04-28 09:53:00,
2013-04-28 12:58:00,87.4,30.6,29.88,West,270,1.1,2.2,13,0.00,,,0.00,meteobridge,2013-04-28 09:58:00,
2013-04-28 13:03:00,87.3,30.6,29.88,NW,315,2.0,2.9,13,0.00,,,0.00,meteobridge,2013-04-28 10:03:00,
2013-04-28 13:08:00,86.9,30.2,29.88,NNW,338,3.1,3.6,13,0.00,,,0.00,meteobridge,2013-04-28 10:08:00,
2013-04-28 13:13:00,86.7,30.0,29.88,North,0,1.3,6.0,13,0.00,,,0.00,meteobridge,2013-04-28 10:13:00,
2013-04-28 13:18:00,86.7,30.0,29.88,East,90,2.2,3.4,13,0.00,,,0.00,meteobridge,2013-04-28 10:18:00,
2013-04-28 13:23:00,87.1,30.4,29.88,SSE,158,2.0,3.1,13,0.00,,,0.00,meteobridge,2013-04-28 10:23:00,
2013-04-28 13:28:00,86.7,30.0,29.88,ESE,112,2.0,2.9,13,0.00,,,0.00,meteobridge,2013-04-28 10:28:00,
2013-04-28 13:33:00,86.7,30.0,29.88,NNW,338,3.1,6.3,13,0.00,,,0.00,meteobridge,2013-04-28 10:33:00,
2013-04-28 13:39:00,86.5,29.8,29.88,SSE,158,4.3,4.5,13,0.00,,,0.00,meteobridge,2013-04-28 10:39:00,
2013-04-28 13:44:00,86.4,29.8,29.88,NNW,338,3.6,3.6,13,0.00,,,0.00,meteobridge,2013-04-28 10:44:00,
2013-04-28 13:49:00,86.4,29.8,29.88,WNW,292,1.3,3.4,13,0.00,,,0.00,meteobridge,2013-04-28 10:49:00,
2013-04-28 13:54:00,87.4,30.6,29.88,ESE,112,1.3,2.0,13,0.00,,,0.00,meteobridge,2013-04-28 10:54:00,
2013-04-28 13:59:00,87.1,30.4,29.88,SSE,158,5.4,8.7,13,0.00,,,0.00,meteobridge,2013-04-28 10:59:00,
2013-04-28 14:04:00,86.9,30.2,29.88,WNW,292,3.4,4.3,13,0.00,,,0.00,meteobridge,2013-04-28 11:04:00,
2013-04-28 14:09:00,87.6,30.7,29.88,SW,225,2.0,3.6,13,0.00,,,0.00,meteobridge,2013-04-28 11:09:00,
2013-04-28 14:14:00,86.9,30.2,29.88,WNW,292,2.0,4.0,13,0.00,,,0.00,meteobridge,2013-04-28 11:14:00,
2013-04-28 14:19:00,87.3,30.6,29.88,SE,135,2.0,3.6,13,0.00,,,0.00,meteobridge,2013-04-28 11:19:00,
2013-04-28 14:24:00,87.1,30.4,29.88,ESE,112,2.5,5.6,13,0.00,,,0.00,meteobridge,2013-04-28 11:24:00,
2013-04-28 14:29:00,87.4,30.6,29.88,SSE,158,3.4,5.4,13,0.00,,,0.00,meteobridge,2013-04-28 11:29:00,
2013-04-28 14:35:00,87.6,30.7,29.88,WNW,292,2.5,2.5,13,0.00,,,0.00,meteobridge,2013-04-28 11:35:00,
2013-04-28 14:40:00,87.1,30.4,29.88,South,180,4.0,5.4,13,0.00,,,0.00,meteobridge,2013-04-28 11:40:00,
2013-04-28 14:45:00,87.4,30.6,29.88,East,90,0.9,1.6,13,0.00,,,0.00,meteobridge,2013-04-28 11:45:00,
2013-04-28 14:50:00,87.4,30.6,29.88,East,90,2.0,3.4,13,0.00,,,0.00,meteobridge,2013-04-28 11:50:00,
2013-04-28 14:55:00,87.8,30.9,29.88,ENE,68,1.3,2.7,13,0.00,,,0.00,meteobridge,2013-04-28 11:55:00,
2013-04-28 15:00:00,87.3,30.6,29.88,West,270,1.3,3.8,13,0.00,,,0.00,meteobridge,2013-04-28 12:00:00,
2013-04-28 15:05:00,87.1,30.4,29.88,NW,315,2.9,6.5,13,0.00,,,0.00,meteobridge,2013-04-28 12:05:00,
2013-04-28 15:10:00,86.7,30.0,29.88,ESE,112,2.7,3.4,13,0.00,,,0.00,meteobridge,2013-04-28 12:10:00,
2013-04-28 15:15:00,87.4,30.6,29.88,SSE,158,1.6,3.8,13,0.00,,,0.00,meteobridge,2013-04-28 12:15:00,
2013-04-28 15:20:00,87.3,30.6,29.88,WSW,248,2.0,2.7,13,0.00,,,0.00,meteobridge,2013-04-28 12:20:00,
2013-04-28 15:25:00,87.6,30.7,29.85,SE,135,1.1,3.4,13,0.00,,,0.00,meteobridge,2013-04-28 12:25:00,
2013-04-28 15:30:00,87.3,30.6,29.85,North,0,3.4,3.8,13,0.00,,,0.00,meteobridge,2013-04-28 12:30:00,
2013-04-28 15:35:00,86.4,29.8,29.85,East,90,0.9,3.1,13,0.00,,,0.00,meteobridge,2013-04-28 12:35:00,
2013-04-28 15:40:00,86.4,29.8,29.88,NNW,338,2.9,5.6,13,0.00,,,0.00,meteobridge,2013-04-28 12:40:00,
2013-04-28 15:45:00,86.4,29.8,29.88,WNW,292,2.7,3.1,13,0.00,,,0.00,meteobridge,2013-04-28 12:45:00,
2013-04-28 15:50:00,85.8,29.3,29.88,WSW,248,2.9,5.4,13,0.00,,,0.00,meteobridge,2013-04-28 12:50:00,
2013-04-28 15:55:00,86.2,29.7,29.88,NE,45,0.0,3.4,13,0.00,,,0.00,meteobridge,2013-04-28 12:55:00,
2013-04-28 16:00:00,85.6,29.3,29.88,West,270,3.1,6.0,13,0.00,,,0.00,meteobridge,2013-04-28 13:00:00,
2013-04-28 16:05:00,85.1,28.8,29.88,SE,135,2.7,2.9,13,0.00,,,0.00,meteobridge,2013-04-28 13:05:00,
2013-04-28 16:10:00,85.3,28.9,29.88,SSW,202,2.7,4.9,13,0.00,,,0.00,meteobridge,2013-04-28 13:10:00,
2013-04-28 16:15:00,85.6,29.3,29.88,SSE,158,3.1,4.7,13,0.00,,,0.00,meteobridge,2013-04-28 13:15:00,
2013-04-28 16:20:00,85.6,29.3,29.88,South,180,4.9,5.6,13,0.00,,,0.00,meteobridge,2013-04-28 13:20:00,
2013-04-28 16:25:00,85.1,28.8,29.88,ESE,112,2.2,4.0,13,0.00,,,0.00,meteobridge,2013-04-28 13:25:00,
2013-04-28 16:30:00,84.7,28.6,29.88,SSW,202,3.6,5.4,13,0.00,,,0.00,meteobridge,2013-04-28 13:30:00,
2013-04-28 16:35:00,84.9,28.6,29.88,East,90,1.1,3.8,13,0.00,,,0.00,meteobridge,2013-04-28 13:35:00,
2013-04-28 16:41:00,84.9,28.6,29.85,SSE,158,3.4,3.8,13,0.00,,,0.00,meteobridge,2013-04-28 13:41:00,
2013-04-28 16:46:00,84.6,28.4,29.85,NNE,22,1.6,4.9,13,0.00,,,0.00,meteobridge,2013-04-28 13:46:00,
2013-04-28 16:51:00,84.0,29.8,29.85,SW,225,3.8,3.8,14,0.00,,,0.00,meteobridge,2013-04-28 13:51:00,
2013-04-28 16:57:00,83.8,29.7,29.88,SSW,202,2.0,4.9,14,0.00,,,0.00,meteobridge,2013-04-28 13:57:00,
2013-04-28 17:02:00,84.0,29.8,29.88,NE,45,2.7,2.9,14,0.00,,,0.00,meteobridge,2013-04-28 14:02:00,
2013-04-28 17:08:00,83.5,29.3,29.88,ENE,68,6.0,6.0,14,0.00,,,0.00,meteobridge,2013-04-28 14:08:00,
2013-04-28 17:13:00,83.3,29.1,29.85,SE,135,5.8,10.1,14,0.00,,,0.00,meteobridge,2013-04-28 14:13:00,
2013-04-28 17:19:00,83.3,29.1,29.85,SSE,158,3.4,3.8,14,0.00,,,0.00,meteobridge,2013-04-28 14:19:00,
2013-04-28 17:24:00,83.1,29.1,29.85,SE,135,2.0,6.5,14,0.00,,,0.00,meteobridge,2013-04-28 14:24:00,
2013-04-28 17:29:00,82.9,28.9,29.85,SW,225,2.9,6.0,14,0.00,,,0.00,meteobridge,2013-04-28 14:29:00,
2013-04-28 17:34:00,82.4,28.4,29.85,SSE,158,3.6,3.6,14,0.00,,,0.00,meteobridge,2013-04-28 14:34:00,
2013-04-28 17:39:00,82.8,28.8,29.88,NNE,22,2.9,3.6,14,0.00,,,0.00,meteobridge,2013-04-28 14:39:00,
2013-04-28 17:44:00,81.9,28.0,29.88,East,90,3.1,4.0,14,0.00,,,0.00,meteobridge,2013-04-28 14:44:00,
2013-04-28 17:49:00,81.9,28.0,29.88,NE,45,1.6,2.7,14,0.00,,,0.00,meteobridge,2013-04-28 14:49:00,
2013-04-28 17:54:00,81.7,27.9,29.88,East,90,4.3,4.3,14,0.00,,,0.00,meteobridge,2013-04-28 14:54:00,
2013-04-28 17:59:00,81.1,27.5,29.88,SE,135,7.4,11.4,14,0.00,,,0.00,meteobridge,2013-04-28 14:59:00,
2013-04-28 18:04:00,80.4,28.6,29.88,NNE,22,4.0,4.5,15,0.00,,,0.00,meteobridge,2013-04-28 15:04:00,
2013-04-28 18:09:00,80.1,28.2,29.88,ESE,112,1.6,2.5,15,0.00,,,0.00,meteobridge,2013-04-28 15:09:00,
2013-04-28 18:14:00,79.9,28.2,29.88,SE,135,1.1,3.4,15,0.00,,,0.00,meteobridge,2013-04-28 15:14:00,
2013-04-28 18:19:00,79.5,27.9,29.88,NNW,338,2.0,6.0,15,0.00,,,0.00,meteobridge,2013-04-28 15:19:00,
2013-04-28 18:25:00,78.4,27.0,29.88,NNW,338,1.1,2.9,15,0.00,,,0.00,meteobridge,2013-04-28 15:25:00,
2013-04-28 18:30:00,77.7,26.4,29.88,SSW,202,1.1,2.7,15,0.00,,,0.00,meteobridge,2013-04-28 15:30:00,
2013-04-28 18:35:00,76.8,25.7,29.88,North,0,1.6,3.6,15,0.00,,,0.00,meteobridge,2013-04-28 15:35:00,
2013-04-28 18:40:00,76.5,25.5,29.88,WNW,292,2.7,4.7,15,0.00,,,0.00,meteobridge,2013-04-28 15:40:00,
2013-04-28 18:45:00,76.3,25.3,29.88,South,180,2.5,2.5,15,0.00,,,0.00,meteobridge,2013-04-28 15:45:00,
2013-04-28 18:50:00,75.9,25.0,29.88,NW,315,1.6,4.0,15,0.00,,,0.00,meteobridge,2013-04-28 15:50:00,
2013-04-28 18:55:00,75.7,24.8,29.88,East,90,0.9,2.2,15,0.00,,,0.00,meteobridge,2013-04-28 15:55:00,
2013-04-28 19:00:00,75.6,24.8,29.88,NNW,338,2.2,2.7,15,0.00,,,0.00,meteobridge,2013-04-28 16:00:00,
2013-04-28 19:06:00,75.6,24.8,29.88,NNW,338,1.6,4.0,15,0.00,,,0.00,meteobridge,2013-04-28 16:06:00,
2013-04-28 19:11:00,75.4,24.6,29.88,NNE,22,4.3,4.3,15,0.00,,,0.00,meteobridge,2013-04-28 16:11:00,
2013-04-28 19:16:00,75.2,24.4,29.88,North,0,1.3,2.5,15,0.00,,,0.00,meteobridge,2013-04-28 16:16:00,
2013-04-28 19:21:00,75.0,25.9,29.88,SE,135,0.0,3.1,16,0.00,,,0.00,meteobridge,2013-04-28 16:21:00,
2013-04-28 19:26:00,75.0,25.9,29.88,North,0,0.0,1.6,16,0.00,,,0.00,meteobridge,2013-04-28 16:26:00,
2013-04-28 19:31:00,74.8,25.7,29.88,NNW,338,1.6,5.6,16,0.00,,,0.00,meteobridge,2013-04-28 16:31:00,
2013-04-28 19:36:00,74.7,25.5,29.88,NW,315,2.0,2.7,16,0.00,,,0.00,meteobridge,2013-04-28 16:36:00,
2013-04-28 19:41:00,74.5,25.3,29.88,North,0,2.0,2.0,16,0.00,,,0.00,meteobridge,2013-04-28 16:41:00,
2013-04-28 19:46:00,74.5,25.3,29.88,NNW,338,1.3,2.5,16,0.00,,,0.00,meteobridge,2013-04-28 16:46:00,
2013-04-28 19:51:00,74.1,25.2,29.88,SSW,202,2.5,2.5,16,0.00,,,0.00,meteobridge,2013-04-28 16:51:00,
2013-04-28 19:56:00,73.9,25.0,29.88,South,180,2.5,4.3,16,0.00,,,0.00,meteobridge,2013-04-28 16:56:00,
2013-04-28 20:01:00,73.8,24.8,29.88,South,180,1.6,4.0,16,0.00,,,0.00,meteobridge,2013-04-28 17:01:00,
2013-04-28 20:06:00,73.6,24.6,29.88,NNE,22,0.0,0.0,16,0.00,,,0.00,meteobridge,2013-04-28 17:06:00,
2013-04-28 20:11:00,73.2,24.4,29.88,NNW,338,0.0,2.0,16,0.00,,,0.00,meteobridge,2013-04-28 17:11:00,
2013-04-28 20:16:00,73.2,24.4,29.88,North,0,2.5,3.1,16,0.00,,,0.00,meteobridge,2013-04-28 17:16:00,
2013-04-28 20:21:00,73.0,24.3,29.88,WNW,292,1.1,5.8,16,0.00,,,0.00,meteobridge,2013-04-28 17:21:00,
2013-04-28 20:26:00,72.9,24.1,29.88,NNW,338,2.2,2.2,16,0.00,,,0.00,meteobridge,2013-04-28 17:26:00,
2013-04-28 20:44:00,72.5,23.9,29.91,NNW,338,0.0,2.0,16,0.00,,,0.00,meteobridge,2013-04-28 17:44:00,
2013-04-28 20:49:00,72.5,23.9,29.91,North,0,0.0,1.3,16,0.00,,,0.00,meteobridge,2013-04-28 17:49:00,
2013-04-28 20:54:00,72.3,23.7,29.91,NNW,338,0.0,1.6,16,0.00,,,0.00,meteobridge,2013-04-28 17:54:00,
2013-04-28 20:59:00,72.1,23.5,29.91,North,0,0.0,0.0,16,0.00,,,0.00,meteobridge,2013-04-28 17:59:00,
2013-04-28 21:04:00,72.1,23.5,29.91,NE,45,1.3,2.7,16,0.00,,,0.00,meteobridge,2013-04-28 18:04:00,
2013-04-28 21:09:00,72.1,23.5,29.91,SW,225,0.0,1.1,16,0.00,,,0.00,meteobridge,2013-04-28 18:09:00,
2013-04-28 21:15:00,72.1,23.5,29.91,NNE,22,0.0,0.0,16,0.00,,,0.00,meteobridge,2013-04-28 18:15:00,
2013-04-28 21:20:00,72.0,23.4,29.91,North,0,0.9,2.5,16,0.00,,,0.00,meteobridge,2013-04-28 18:20:00,
2013-04-28 21:25:00,71.4,24.4,29.91,North,0,0.0,0.9,17,0.00,,,0.00,meteobridge,2013-04-28 18:25:00,
2013-04-28 21:31:00,70.9,19.4,29.91,NNE,22,0.9,1.3,14,0.00,,,0.00,meteobridge,2013-04-28 18:31:00,
2013-04-28 21:36:00,70.7,19.2,29.91,ESE,112,0.0,0.0,14,0.00,,,0.00,meteobridge,2013-04-28 18:36:00,
2013-04-28 21:41:00,70.3,19.0,29.94,ESE,112,0.0,1.6,14,0.00,,,0.00,meteobridge,2013-04-28 18:41:00,
2013-04-28 21:46:00,70.2,18.9,29.94,ESE,112,0.0,1.3,14,0.00,,,0.00,meteobridge,2013-04-28 18:46:00,
2013-04-28 21:51:00,70.2,18.9,29.94,ESE,112,0.0,0.0,14,0.00,,,0.00,meteobridge,2013-04-28 18:51:00,
2013-04-28 21:56:00,70.0,18.7,29.94,NNE,22,0.0,1.1,14,0.00,,,0.00,meteobridge,2013-04-28 18:56:00,
2013-04-28 22:01:00,69.6,19.9,29.94,North,0,0.0,1.3,15,0.00,,,0.00,meteobridge,2013-04-28 19:01:00,
2013-04-28 22:06:00,69.4,19.9,29.94,North,0,0.0,0.0,15,0.00,,,0.00,meteobridge,2013-04-28 19:06:00,
2013-04-28 22:11:00,69.1,19.6,29.94,North,0,0.0,0.0,15,0.00,,,0.00,meteobridge,2013-04-28 19:11:00,
2013-04-28 22:16:00,68.9,19.4,29.94,NNE,22,0.9,0.9,15,0.00,,,0.00,meteobridge,2013-04-28 19:16:00,
2013-04-28 22:21:00,68.7,19.2,29.94,NE,45,0.9,1.1,15,0.00,,,0.00,meteobridge,2013-04-28 19:21:00,
2013-04-28 22:26:00,68.5,19.2,29.94,ENE,68,0.0,2.0,15,0.00,,,0.00,meteobridge,2013-04-28 19:26:00,
2013-04-28 22:31:00,68.5,19.2,29.94,ESE,112,0.0,1.1,15,0.00,,,0.00,meteobridge,2013-04-28 19:31:00,
2013-04-28 22:36:00,68.4,19.0,29.94,NNE,22,0.9,1.6,15,0.00,,,0.00,meteobridge,2013-04-28 19:36:00,
2013-04-28 22:42:00,68.2,18.9,29.94,NNE,22,1.1,1.3,15,0.00,,,0.00,meteobridge,2013-04-28 19:42:00,
2013-04-28 22:47:00,68.2,18.9,29.94,NNE,22,1.1,1.3,15,0.00,,,0.00,meteobridge,2013-04-28 19:47:00,
2013-04-28 22:52:00,68.0,18.7,29.94,NNE,22,0.0,0.0,15,0.00,,,0.00,meteobridge,2013-04-28 19:52:00,
2013-04-28 22:57:00,67.8,18.5,29.94,ENE,68,0.0,0.0,15,0.00,,,0.00,meteobridge,2013-04-28 19:57:00,
2013-04-28 23:03:00,67.6,18.5,29.94,ENE,68,0.0,0.0,15,0.00,,,0.00,meteobridge,2013-04-28 20:03:00,
2013-04-28 23:08:00,67.6,18.5,29.94,ESE,112,0.0,0.0,15,0.00,,,0.00,meteobridge,2013-04-28 20:08:00,
2013-04-28 23:13:00,67.5,18.3,29.94,East,90,0.0,0.0,15,0.00,,,0.00,meteobridge,2013-04-28 20:13:00,
2013-04-28 23:19:00,67.3,21.0,29.94,ENE,68,0.0,0.0,17,0.00,,,0.00,meteobridge,2013-04-28 20:19:00,
2013-04-28 23:24:00,67.1,18.0,29.94,NE,45,0.0,0.0,15,0.00,,,0.00,meteobridge,2013-04-28 20:24:00,
2013-04-28 23:29:00,67.1,20.8,29.94,NNE,22,0.0,0.0,17,0.00,,,0.00,meteobridge,2013-04-28 20:29:00,
2013-04-28 23:34:00,66.9,20.8,29.94,NNE,22,0.0,0.0,17,0.00,,,0.00,meteobridge,2013-04-28 20:34:00,
2013-04-28 23:40:00,66.7,20.7,29.94,NNE,22,0.0,0.0,17,0.00,,,0.00,meteobridge,2013-04-28 20:40:00,
2013-04-28 23:45:00,66.7,20.7,29.94,NNE,22,0.0,0.0,17,0.00,,,0.00,meteobridge,2013-04-28 20:45:00,
2013-04-28 23:50:00,66.6,20.5,29.94,NNE,22,0.0,0.9,17,0.00,,,0.00,meteobridge,2013-04-28 20:50:00,
2013-04-28 23:55:00,66.6,20.5,29.94,NNE,22,0.0,1.6,17,0.00,,,0.00,meteobridge,2013-04-28 20:55:00,